{"data":{"norad_id":50478,"intl_designator":"2021-132K","name":"ONEWEB-0398","alt_names":[],"object_type":"PAYLOAD","status":"ACTIVE","operator":null,"country":"UK","launch_date":"2021-12-27","launch_site_code":"TYMSC","launch_vehicle":null,"mission":null,"orbit_class":"UNKNOWN","rcs_meters":null,"size_class":null,"mass_kg":null,"dimensions":null,"purposes":["comms"],"wikipedia_slug":null,"has_3d_model":false,"image_url":null,"decayed_at":null,"tle_current":{"epoch":"2026-05-25T02:14:12.568128Z","epoch_age_seconds":60986,"freshness":"FRESH","line1":"1 50478U 21132K   26145.09320102 -.00000223  00000+0 -66377-3 0  9998","line2":"2 50478  87.8918  25.6514 0001595  90.0009 270.1302 13.11418632212581","mean_motion":13.11418632,"eccentricity":0.0001595,"inclination_deg":87.8918,"raan_deg":25.6514,"arg_perigee_deg":90.0009,"mean_anomaly_deg":270.1302,"bstar":-0.00066377,"rev_number":21258,"period_min":109.80475378819,"perigee_km":1216.464652029,"apogee_km":1218.8877164347,"semimajor_km":7595.8131842318,"source":"CELESTRAK","updated_at":"2026-05-25T13:38:22.529664Z"}}}